Probability
0 0 0 0 0 0 0 0 0 0 0 0 0 0 0 0 0 0 0 0 0 0 0 0 0 0 0 0 0 0 0 0 0 0 0 0 0 0 0 0 0 0 0 0
0 0 0 0 0 0 0 0 0 0 0 0 0 0 0 0 0 0 0 0 0 0 0 0 0 0 0 0 0 0 0 0 0 0 0 0 0 0 0 0 0 0 0 0
0 0 0 0 0 0 0 0 0 0 0 0 0 0 0 0 0 0 0 0 0 0 0 0 0 0 0 0 0 0 0 0 0 0 0 0 0 0 0 0 0 0 0 0
0 0 0 0 0 0 0 0 0 0 0 0 0 0 0 0 0 0 0 0 0 0 0 0 0 0 0 0 0 0 0 0 0 0 0 0 0 0 0 0 0 0 0 0
0 0 0 0 0 0 0 0 0 0 0 0 0 0 0 0 0 0 0 0 0 0 0 0 0 0 0 0 0 0 0 0 0 0 0 0 0 0 0 0 0 0 0 0
0 0 0 0 0 0 0 0 0 0 0 0 0 0 0 0 0 0 0 0 0 0 0 0 0 0 0 0 0 0 0 0 0 0 0 0 0 0 0 0 0 0 0 0
0 0 0 0 0 0 0 0 0 0 0 0 0 0 0 0 0 0 0 0 0 0 0 0 0 0 0 0 0 0 0 0 0 0 0 0 0 0 0 0 0 0 0 0
0 0 0 0 0 0 0 0 0 0 0 0 0 0 0 0 0 0 0 0 0 0 0 0 0 0 0 0 0 0 0 0 0 0 0 0 0 0 0 0 0 0 0 0
0 0 0 0 0 0 0 0 0 0 0 0 0 0 0 0 0 0 0 0 0 0 0 0 0 0 0 0 0 0 0 0 0 0 0 0 0 0 0 0 0 0 0 0
0 0 0 0 0 0 0 0 0 0 0 0 0 0 0 0 0 0 0 0 0 0 0 0 0 0 0 0 0 0 0 0 0 0 0 0 0 0 0 0 0 0 0 0
0 0 0 0 0 0 0 0 0 0 0 0 0 0 0 0 0 0 0 0 0 0 0 0 0 0 0 0 0 0 0 0 0 0 0 0 0 0 0 0 0 0 0 0
0 0 0 0 0 0 0 0 0 0 0 0 0 0 0 0 0 0 0 0 0 0 0 0 0 0 0 0 0 0 0 0 0 0 0 0 0 0 0 0 0 0 0 0
0 0 0 0 0 0 0 0 0 0 0 0 0 0 0 0 0 0 0 0 0 0 0 0 0 0 0 0 0 0 0 0 0 0 0 0 0 0 0 0 0 0 0 0
0 0 0 0 0 0 0 0 0 0 0 0 0 0 0 0 0 0 0 0 0 0 0 0 0 0 0 0 0 0 0 0 0 0 0 0 0 0 0 0 0 0 0 0
0 0 0 0 0 0 0 0 0 0 0 0 0 0 0 0 0 0 0 0 0 0 0 0 0 0 0 0 0 0 0 0 0 0 0 0 0 0 0 0 0 0 0 0
0 0 0 0 0 0 0 0 0 0 0 0 0 0 0 0 0 0 0 0 0 0 0 0 0 0 0 0 0 0 0 0 0 0 0 0 0 0 0 0 0 0 0 0
0 0 0 0 0 0 0 0 0 0 0 0 0 0 0 0 0 0 0 0 0 0 0 0 0 0 0 0 0 0 0 0 0 0 0 0 0 0 0 0 0 0 0 0
0 0 0 0 0 0 0 0 0 0 0 0 0 0 0 0 0 0 0 0 0 0 0 0 0 0 0 0 0 0 0 0 0 0 0 0 0 0 0 0 0 0 0 0
0 0 0 0 0 0 0 0 0 0 0 0 0 0 0 0 0 0 0 0 0 0 0 0 0 0 0 0 0 0 0 0 0 0 0 0 0 0 0 0 0 0 0 0
0 0 0 0 0 0 0 0 0 0 0 0 0 0 0 0 0 0 0 0 0 0 0 0 0 0 0 0 0 0 0 0 0 0 0 0 0 0 0 0 0 0 0 0
0 0 0 0 0 0 0 0 0 0 0 0 0 0 0 0 0 0 0 0 0 0 0 0 0 0 0 0 0 0 0 0 0 0 0 0 0 0 0 0 0 0 0 0
0 0 0 0 0 0 0 0 0 0 0 0 0 0 0 0 0 0 0 0 0 0 0 0 0 0 0 0 0 0 0 0 0 0 0 0 0 0 0 0 0 0 0 0
0 0 0 0 0 0 0 0 0 0 0 0 0 0 0 0 0 0 0 0 0 0 0 0 0 0 0 0 0 0 0 0 0 0 0 0 0 0 0 0 0 0 0 0
0 0 0 0 0 0 0 0 0 0 0 0 0 0 0 0 0 0 0 0 0 0 0 0 0 0 0 0 0 0 0 0 0 0 0 0 0 0 0 0 0 0 0 0
0 0 0 0 0 0 0 0 0 0 0 0 0 0 0 0 0 0 0 0 0 0 0 0 0 0 0 0 0 0 0 0 0 0 0 0 0 0 0 0 0 0 0 0
0 0 0 0 0 0 0 0 0 0 0 0 0 0 0 0 0 0 0 0 0 0 0 0 0 0 0 0 0 0 0 0 0 0 0 0 0 0 0 0 0 0 0 0
Wind_Speed
3 4 7 12 12 7 6 6 5 6 4 7 11 13 11 7 8 10 11 13 15 16 9 9 9 8 8 7 7 9 10 10 9 8 6 6 6 5 5 6 7 7 8 8
4 7 12 6 5 4 5 5 7 7 3 7 8 12 12 8 10 12 15 17 18 13 10 12 11 10 10 10 9 10 11 11 9 6 5 5 6 5 5 5 6 7 7 7
12 8 5 7 6 6 7 9 9 8 3 2 4 9 9 10 9 10 12 14 15 18 19 17 15 13 11 11 11 10 11 10 9 10 9 9 6 5 4 5 5 6 7 8
9 6 5 6 9 10 9 9 8 6 3 6 4 8 8 8 9 12 16 14 16 17 17 17 17 15 14 12 9 10 10 10 11 12 13 14 9 7 5 4 5 6 7 8
11 8 9 9 10 13 9 4 5 4 4 5 4 8 9 5 9 13 17 19 19 17 18 20 19 17 12 10 10 10 10 11 12 10 11 12 9 8 8 6 8 7 6 6
6 5 9 10 5 8 6 6 5 5 2 7 10 11 11 9 12 12 15 17 16 15 16 15 12 11 10 9 10 11 12 11 11 11 10 12 16 15 14 11 9 7 5 5
4 6 4 4 7 4 6 7 2 3 3 11 6 10 13 11 11 13 15 13 9 11 14 15 17 16 15 14 12 12 13 12 11 12 10 11 15 17 17 15 12 10 7 5
9 9 11 9 11 11 9 12 11 9 9 7 4 13 11 8 8 8 10 8 5 10 14 17 18 18 16 15 14 13 14 12 12 13 11 10 11 10 10 10 11 10 8 6
12 10 4 8 6 15 8 8 8 5 2 6 10 10 10 5 8 11 10 6 8 11 14 15 15 15 15 15 15 15 14 12 13 13 13 12 10 9 10 9 8 8 7 8
9 6 3 3 3 2 8 9 6 7 6 9 10 9 8 9 13 12 9 10 10 10 11 12 13 14 13 13 10 11 12 13 12 13 13 12 11 10 11 11 11 10 9 9
8 8 3 4 11 14 10 8 7 7 6 7 10 13 9 12 11 10 12 12 11 12 14 13 11 10 10 10 10 11 11 11 12 13 12 13 11 10 11 10 11 11 9 10
9 6 5 8 5 4 7 10 11 10 9 7 10 15 5 8 7 7 10 7 8 11 10 10 10 11 11 12 12 12 12 12 13 12 12 13 12 12 12 11 11 11 11 10
11 7 4 3 3 3 6 7 10 6 6 9 12 14 1 1 5 7 8 6 7 9 10 10 11 13 14 14 14 14 13 13 12 12 13 13 13 14 13 13 12 11 11 10
10 9 13 18 9 11 11 12 13 12 11 14 21 20 6 5 7 7 6 5 7 9 12 13 14 14 15 15 15 15 14 13 13 13 14 15 15 15 14 13 12 12 11 11
9 11 14 15 6 8 11 14 18 22 23 18 21 24 20 11 12 10 7 6 8 10 13 17 17 16 15 15 16 16 16 15 15 15 16 15 13 12 11 12 12 11 11 11
10 9 10 16 13 9 8 14 21 25 20 24 24 33 14 8 10 11 11 11 12 14 17 18 18 17 18 19 19 18 18 17 16 17 15 12 12 12 12 12 12 11 10 9
9 9 10 15 12 8 20 28 20 15 15 14 26 36 10 10 14 18 17 14 16 17 19 19 21 21 21 21 20 21 18 15 15 14 12 12 13 13 13 12 12 12 12 10
12 11 7 7 10 22 20 13 20 24 24 21 21 19 11 17 18 16 12 13 16 17 17 17 17 19 18 16 15 13 12 14 15 13 13 13 13 13 12 12 13 12 9 10
16 15 10 9 17 15 13 8 14 19 25 27 28 27 21 12 8 14 11 14 17 16 16 16 17 16 14 15 15 14 14 14 15 15 15 14 14 14 13 14 13 10 9 10
16 15 13 13 12 13 12 6 9 12 19 15 18 25 23 9 11 19 8 11 12 10 9 9 8 8 11 13 15 16 15 16 18 17 15 13 13 14 15 14 11 8 9 10
13 14 19 20 16 10 7 4 10 13 13 3 10 14 12 12 16 7 1 3 4 5 4 6 8 9 10 13 16 16 15 17 15 11 11 12 13 13 12 10 8 8 8 7
11 10 11 11 13 12 6 9 12 7 1 1 1 3 5 6 3 1 1 1 2 2 2 4 6 6 7 11 14 14 14 11 9 10 11 11 11 10 9 10 9 8 9 9
9 9 6 8 7 3 5 6 3 2 2 1 1 1 1 1 0 1 2 2 3 4 4 4 7 7 6 7 10 11 8 9 10 10 10 9 9 8 8 10 10 8 8 7
5 2 3 4 5 2 2 1 1 1 2 1 1 1 1 2 2 2 2 3 3 4 4 4 7 8 5 4 5 6 8 9 10 10 9 8 8 7 6 6 7 8 8 8
5 5 4 5 2 2 4 5 3 2 2 2 2 1 1 3 2 2 3 3 3 3 3 4 6 6 6 5 6 6 7 8 8 8 7 7 6 7 6 6 5 7 6 7
6 7 7 6 5 5 4 4 6 6 4 3 2 2 2 2 3 3 3 3 3 3 4 5 5 6 6 6 6 4 4 6 8 7 6 5 5 5 5 5 2 5 6 8
Wind_Direction
112 109 196 204 197 191 179 194 231 251 226 183 220 245 256 208 217 229 222 215 216 217 201 184 182 177 173 174 167 160 153 150 142 135 128 116 103 92 83 76 79 88 94 95
87 233 225 194 194 216 225 246 262 280 251 199 239 256 258 227 214 222 222 220 218 209 190 191 187 182 181 180 177 171 166 162 158 140 126 117 116 101 85 83 74 76 89 95
184 220 190 165 186 201 227 222 236 247 302 269 286 285 253 247 226 232 229 224 217 205 197 191 188 188 184 185 182 176 170 164 149 136 125 119 108 100 89 88 79 69 81 87
221 228 157 169 196 188 236 220 216 229 237 263 216 271 256 241 243 240 238 230 223 211 198 189 187 188 188 184 176 170 165 157 150 149 147 146 144 138 134 127 110 92 84 90
222 194 183 196 200 180 213 191 187 209 216 260 224 253 265 229 246 247 241 234 227 211 196 191 189 186 179 172 171 166 158 156 156 158 156 144 133 127 129 122 112 102 90 89
228 205 198 205 183 170 135 77 55 45 74 259 214 225 259 205 217 235 241 236 225 205 193 187 177 168 169 168 166 164 161 161 160 158 158 149 143 142 142 140 131 122 112 100
237 231 220 153 126 128 137 114 31 310 266 247 211 227 248 221 219 223 240 245 225 192 181 176 175 176 176 174 171 168 165 164 163 159 158 157 153 153 153 150 146 143 138 132
193 238 203 189 169 168 184 163 174 206 232 265 242 237 250 243 252 259 263 268 212 183 182 184 183 180 177 175 172 170 169 166 165 163 161 158 156 154 154 154 152 150 148 144
193 231 214 200 177 151 169 208 180 167 258 275 255 264 292 257 264 256 258 253 208 191 187 185 181 179 177 177 177 174 170 167 168 165 160 161 162 159 155 151 145 144 144 144
170 215 222 168 107 175 156 154 132 174 214 253 263 244 237 218 231 239 241 234 217 193 187 184 182 181 179 177 171 170 171 170 167 164 166 167 167 161 156 154 155 154 151 146
188 197 189 167 189 182 158 173 178 172 181 196 270 259 212 206 219 228 237 231 208 193 190 186 182 178 174 169 170 171 171 167 168 169 167 164 166 160 159 160 160 158 154 153
191 178 214 223 238 218 193 181 165 178 212 207 247 263 190 203 229 237 249 239 200 191 185 179 174 172 176 179 178 179 177 176 175 170 166 166 165 162 164 165 165 161 159 160
158 163 218 283 248 216 213 205 201 201 184 206 231 262 280 215 263 253 248 233 193 181 175 174 177 184 187 186 185 185 184 180 174 169 168 168 170 171 172 170 168 166 164 163
163 169 203 220 202 177 200 207 200 195 220 234 237 252 228 232 247 252 242 218 192 185 184 185 190 193 192 190 189 187 186 181 176 175 176 178 179 178 175 171 170 170 169 169
171 203 221 239 210 177 197 205 206 211 221 230 246 251 246 218 236 246 239 211 196 196 197 198 199 197 193 192 192 190 187 183 181 181 184 186 179 173 169 170 172 171 174 176
185 207 215 240 226 206 221 226 218 220 228 237 252 258 249 222 230 241 232 213 209 209 209 208 203 198 196 195 194 191 190 186 183 187 189 179 173 173 175 175 173 175 177 175
191 196 205 240 223 213 235 230 217 218 220 217 239 253 247 228 227 234 232 219 216 216 214 209 205 203 201 198 193 193 190 180 183 186 180 176 176 179 180 176 176 182 182 178
194 198 210 231 212 230 240 221 207 222 232 227 239 253 236 228 237 240 230 220 224 222 219 213 208 206 202 193 188 181 171 174 181 183 181 179 179 181 177 177 185 187 181 186
201 203 214 225 239 250 262 215 190 208 237 230 234 248 251 245 277 268 238 226 229 223 218 214 208 202 189 183 175 165 169 173 180 187 187 184 181 180 180 187 191 187 183 192
208 209 220 226 232 231 243 206 177 174 243 234 217 238 247 230 244 260 240 226 233 229 219 208 188 171 170 169 159 164 173 179 190 192 188 181 181 184 188 193 188 183 188 196
199 210 223 232 240 243 246 163 131 178 236 218 204 227 235 214 230 268 334 249 237 228 210 174 160 165 168 158 160 171 177 191 191 177 170 174 183 188 188 184 180 180 186 187
190 205 217 224 236 240 182 151 181 207 116 139 215 239 231 232 260 336 357 359 40 71 96 129 138 139 141 153 160 171 186 182 155 157 168 176 181 181 178 179 180 179 182 192
201 200 195 205 223 227 171 192 192 143 153 157 213 278 183 174 144 78 74 63 60 72 78 92 116 114 121 148 160 171 169 144 148 157 168 171 171 176 176 180 179 176 182 195
225 180 185 226 242 227 219 282 251 154 152 140 121 107 126 139 132 113 105 89 78 74 77 93 111 116 115 121 129 135 133 140 146 158 162 161 166 170 170 174 176 181 188 197
195 173 193 225 243 316 262 226 199 148 115 101 79 72 104 131 136 142 133 122 111 94 80 100 115 120 119 111 103 110 128 136 142 149 151 157 164 168 172 177 187 189 195 196
184 180 186 213 201 190 223 207 177 164 167 161 133 95 68 118 136 123 118 116 115 108 100 101 102 109 109 107 100 97 119 134 139 144 154 159 160 160 161 161 164 214 196 211